{"data":{"norad_id":68372,"intl_designator":"2026-061N","name":"RASSVET-3 13","alt_names":[],"object_type":"PAYLOAD","status":"ACTIVE","operator":null,"country":"CIS","launch_date":"2026-03-23","launch_site_code":"PLMSC","launch_vehicle":null,"mission":null,"orbit_class":"UNKNOWN","rcs_meters":null,"size_class":null,"mass_kg":null,"dimensions":null,"purposes":[],"wikipedia_slug":null,"has_3d_model":false,"image_url":null,"decayed_at":null,"tle_current":{"epoch":"2026-05-24T03:27:38.713248Z","epoch_age_seconds":145668,"freshness":"FRESH","line1":"1 68372U 26061N   26144.14419807  .00020316  00000+0  29394-3 0  9993","line2":"2 68372  82.2960  40.0454 0007928 131.9233 228.2698 15.55722428  9704","mean_motion":15.55722428,"eccentricity":0.0007928,"inclination_deg":82.296,"raan_deg":40.0454,"arg_perigee_deg":131.9233,"mean_anomaly_deg":228.2698,"bstar":0.00029394,"rev_number":970,"period_min":92.561499023398,"perigee_km":394.67968364857,"apogee_km":405.42718239917,"semimajor_km":6778.1904330239,"source":"CELESTRAK","updated_at":"2026-05-25T13:38:07.767277Z"}}}